Wind_Speed
34 33 32 31 30 29 29 29 29 29 30 29 28 27 27 28 28 28 28 28 30 30 30 29 28 28 28 28 27 27 29 32 37 42 47 52 56 59 61 62 63 64 64 64 64 64 64 63 63 64 64 65 65 65 65 64 63 62 61 61 61 61 62
37 36 34 33 32 32 31 31 30 30 31 30 29 29 28 28 29 29 27 27 29 31 31 29 26 26 27 28 26 24 25 27 31 36 41 47 51 56 59 61 62 62 63 63 61 61 63 63 62 62 63 64 65 65 65 66 65 65 64 64 63 63 62
39 38 37 35 34 34 33 32 32 32 32 31 31 30 30 29 29 29 28 27 28 31 31 29 26 25 26 27 25 22 22 23 25 29 35 40 45 50 55 58 60 61 62 61 59 58 59 60 60 60 60 62 64 65 66 67 67 67 67 66 66 65 65
40 40 39 38 36 35 34 34 33 33 33 33 32 31 31 31 30 29 28 27 28 30 31 29 26 25 25 25 23 21 20 20 21 24 28 33 38 43 48 52 55 58 59 60 59 55 54 55 57 57 56 57 60 64 66 67 68 69 69 68 68 68 68
41 41 41 39 38 37 36 35 34 34 34 33 33 32 32 32 30 29 28 27 28 30 30 28 26 25 24 23 22 21 19 18 18 20 23 27 31 36 41 45 48 52 54 56 57 54 51 50 51 52 52 52 53 58 62 65 67 69 70 70 70 70 70
40 41 41 40 39 38 37 35 35 34 34 34 33 33 33 33 31 29 28 27 28 29 29 27 26 25 24 22 21 20 19 18 17 17 18 21 24 29 33 37 41 44 47 50 52 52 49 47 47 48 49 49 49 52 56 60 63 66 69 71 72 72 72
39 40 41 40 40 38 37 36 35 35 35 34 33 33 34 33 31 29 28 27 27 28 27 26 25 25 24 22 20 20 19 18 16 16 16 17 19 23 27 30 33 36 40 43 46 47 47 45 45 46 47 48 49 50 52 54 58 62 66 69 72 74 74
38 39 40 40 39 39 37 36 35 34 34 34 33 34 34 33 30 28 28 28 27 26 26 25 24 24 24 22 20 19 19 18 17 16 15 16 17 18 21 24 26 30 33 36 39 41 43 43 43 44 46 48 49 51 51 51 54 56 59 64 69 73 75
37 38 39 38 38 38 37 36 35 34 34 34 34 34 34 33 30 28 27 27 27 26 25 25 24 23 23 23 21 19 19 19 18 17 16 16 17 17 18 20 21 24 27 30 33 35 37 39 40 41 43 45 46 47 49 50 52 54 54 56 62 68 72
35 37 37 37 37 37 37 35 34 34 34 34 34 34 34 32 29 28 28 27 26 25 25 25 24 23 23 22 21 19 18 18 18 18 17 17 18 18 19 19 20 21 23 25 27 29 30 32 33 33 35 37 39 41 44 46 49 51 53 54 56 59 63
34 34 35 36 36 36 36 34 33 33 34 34 34 34 33 31 29 28 28 27 26 25 25 25 25 24 23 23 21 19 19 18 18 17 17 18 20 20 21 22 22 22 22 23 24 24 25 25 25 26 26 27 28 30 34 37 41 45 50 53 55 56 57
32 33 33 35 35 35 34 33 32 33 33 34 34 35 33 30 28 28 28 27 26 25 24 25 24 24 24 24 22 21 19 18 18 18 17 18 20 21 22 23 23 24 24 25 25 25 25 25 24 23 22 22 22 22 24 27 31 37 42 47 51 55 57
31 31 32 33 33 33 33 32 32 32 32 33 33 34 34 31 28 28 28 28 26 24 23 23 23 23 24 24 24 23 21 19 18 18 18 18 19 20 20 21 22 23 25 26 28 28 28 28 28 27 25 23 23 22 21 21 23 28 33 39 43 48 53
30 30 31 31 31 32 31 31 31 31 31 32 32 33 33 31 29 28 29 27 25 23 22 21 22 23 23 23 23 23 22 20 20 20 19 19 18 17 17 18 19 19 21 24 27 29 29 30 31 30 29 28 26 25 23 21 21 23 27 31 35 40 45
30 29 29 30 30 30 30 30 31 31 31 31 31 32 32 31 29 29 30 27 23 22 21 20 22 23 22 22 22 21 21 21 21 22 22 20 18 16 16 16 15 15 18 22 25 26 27 28 31 32 32 31 30 28 27 24 23 24 25 26 28 32 37
29 29 28 29 29 28 28 29 30 31 30 30 30 31 32 31 29 30 30 26 22 21 19 17 19 21 21 20 19 18 19 20 22 23 23 21 19 17 17 15 13 14 17 20 22 25 25 25 27 29 31 32 32 32 30 28 27 28 27 26 25 25 29
28 28 27 27 28 27 27 28 30 30 30 29 30 31 31 30 30 31 30 25 21 20 17 14 15 17 18 17 17 17 18 20 22 23 23 21 20 20 18 14 12 14 17 18 22 24 24 23 24 25 28 29 31 33 33 31 31 31 30 28 25 24 25
28 27 27 26 26 26 26 26 29 29 28 28 29 30 30 30 30 31 30 23 19 18 16 15 15 16 16 15 15 17 18 19 21 23 23 22 21 22 19 13 11 15 17 19 22 23 22 22 22 23 25 26 28 31 33 34 34 33 31 31 29 26 25
27 26 26 25 25 25 25 25 27 28 28 27 28 29 30 30 31 31 28 22 18 17 18 17 16 17 17 16 15 16 17 18 20 22 23 22 22 23 18 12 13 17 17 20 22 21 21 22 22 23 24 25 26 28 31 34 35 34 34 34 32 29 27
26 25 25 25 24 24 23 24 25 27 27 26 28 29 30 31 32 31 26 20 17 18 19 18 18 18 19 18 16 15 15 16 17 19 21 22 24 23 18 15 18 20 19 21 22 21 22 23 22 23 24 24 25 26 29 32 33 34 35 36 35 32 30
26 25 24 25 24 23 23 23 24 26 26 26 27 29 31 32 32 28 24 20 18 19 20 19 18 18 19 19 18 16 15 15 15 17 20 21 23 23 19 18 21 21 21 23 23 22 23 23 22 23 24 24 25 26 27 29 31 33 35 37 37 34 32
25 24 24 24 23 22 22 23 23 24 24 25 27 29 31 33 30 26 23 21 19 19 20 18 17 18 20 22 22 19 17 16 15 16 20 22 22 21 19 19 21 22 24 25 24 24 24 24 23 24 23 23 24 25 26 28 30 31 33 36 37 34 32
25 23 23 23 23 22 22 22 22 22 23 24 27 29 32 32 28 24 23 22 20 19 19 17 16 17 20 23 24 22 20 19 18 18 19 21 22 22 20 19 21 23 25 25 26 26 26 25 24 22 21 22 23 24 26 27 29 30 31 34 35 33 31
24 23 22 22 22 22 22 21 20 21 22 24 26 29 31 30 27 25 24 22 20 19 18 17 16 18 21 23 25 25 23 21 21 20 19 19 20 22 23 22 22 23 25 26 27 27 26 24 23 20 20 22 23 24 26 28 29 30 30 32 33 32 31
24 22 21 21 22 22 21 20 20 20 21 23 24 27 28 29 28 26 25 23 21 20 19 18 18 19 21 23 24 25 24 23 22 22 22 20 19 20 22 24 25 26 26 27 27 25 23 21 19 19 21 23 23 25 27 28 29 29 28 30 31 32 34
23 21 20 20 21 21 20 19 19 20 21 22 24 26 27 28 28 26 25 24 23 21 21 21 20 20 20 22 23 23 23 24 24 24 24 23 21 20 20 23 26 29 30 30 28 25 23 20 18 19 21 23 23 24 25 26 27 27 26 28 31 34 37
22 20 19 19 20 20 19 18 19 20 21 23 24 26 27 27 27 27 26 25 24 24 24 24 23 22 21 22 23 23 23 24 25 25 25 24 24 23 21 21 24 28 31 32 29 26 23 21 20 21 21 21 21 21 22 24 25 25 25 27 31 35 38
21 20 18 18 19 19 18 17 18 20 22 24 25 26 26 27 27 28 27 26 26 26 26 26 25 24 24 23 24 25 25 25 25 25 25 25 25 24 23 22 23 25 29 31 30 27 25 23 22 22 21 21 19 18 18 21 23 24 24 26 30 34 37
20 19 18 17 17 17 16 16 18 20 22 25 26 26 26 26 28 28 27 27 28 28 27 27 26 26 26 25 25 25 26 26 26 25 25 25 25 25 24 24 24 24 26 28 29 29 27 24 22 21 21 21 19 16 16 19 22 23 23 26 30 34 36
20 19 18 15 15 15 15 17 19 21 23 25 25 25 25 26 27 28 28 29 30 28 27 27 27 27 27 27 26 26 26 27 27 26 26 25 25 25 25 25 24 24 24 26 28 29 28 25 23 21 20 20 19 16 15 17 19 21 23 25 28 31 33
19 19 16 13 13 15 17 20 21 22 23 24 25 26 26 27 28 29 30 29 29 28 27 28 28 28 28 27 27 27 27 27 28 27 26 25 24 24 25 24 23 23 23 24 26 28 28 27 25 23 21 20 19 17 17 18 19 20 22 24 25 27 29
18 17 15 13 14 17 18 20 20 21 23 24 25 26 27 28 30 30 29 28 28 29 28 28 28 28 28 28 28 28 27 28 28 27 26 25 23 23 23 22 22 22 23 24 25 26 27 27 26 25 23 22 20 19 19 21 22 23 24 25 25 25 26
16 16 15 14 14 16 17 17 18 20 22 23 25 26 28 30 31 30 28 28 29 28 27 27 27 28 28 28 28 28 28 28 27 26 25 24 22 21 21 21 21 21 22 23 24 25 25 26 26 25 24 23 23 21 21 23 25 26 27 28 29 28 26
15 16 15 14 14 15 15 15 16 17 19 21 23 24 26 29 30 29 28 27 27 27 26 26 26 26 26 26 26 26 26 25 25 24 23 23 22 22 21 21 21 21 22 23 24 24 25 25 25 25 24 24 24 24 24 25 26 28 30 31 31 31 30
15 15 14 14 14 15 15 14 14 15 16 17 19 21 23 24 25 24 23 23 23 23 22 22 22 22 22 22 22 22 23 23 23 22 22 23 22 22 22 22 22 22 22 23 23 24 25 25 25 26 25 25 25 25 25 26 27 29 31 33 33 33 33
15 15 14 14 14 15 15 14 14 14 14 15 17 18 19 20 20 20 19 19 18 18 18 18 18 18 19 19 19 20 20 20 21 21 22 22 22 22 22 22 22 22 22 22 22 23 24 25 25 26 26 26 25 25 26 26 27 29 31 33 34 35 35
Wind_Direction
267 269 270 271 272 273 273 274 275 277 280 282 284 285 286 288 289 291 292 293 294 296 296 295 296 296 293 288 284 279 270 262 256 252 247 244 241 240 241 242 243 243 241 239 238 237 235 234 234 234 235 236 236 236 238 239 239 239 238 237 237 238 239
265 266 267 269 270 271 272 273 274 275 278 281 283 285 286 288 289 291 292 292 293 294 295 295 295 295 292 289 288 288 280 269 261 255 251 246 242 240 240 241 242 243 242 241 239 238 238 237 235 235 234 235 236 235 236 237 237 238 238 237 236 236 237
263 264 265 266 268 269 270 272 273 274 276 278 280 282 284 287 288 290 291 290 291 292 294 294 293 293 291 289 291 293 288 277 265 258 254 250 246 242 240 240 241 242 242 243 241 239 239 239 238 236 235 236 236 236 236 237 237 237 237 238 238 237 237
263 263 264 264 266 267 269 270 272 273 275 277 278 280 282 284 286 288 289 289 289 290 292 293 292 291 290 289 290 291 290 283 272 261 255 252 249 245 243 241 241 241 242 243 243 240 239 240 240 239 237 237 237 237 236 237 237 238 238 238 238 238 237
263 263 263 264 264 265 266 268 269 271 273 275 276 278 279 281 283 286 287 287 287 289 291 292 290 289 290 290 288 288 288 288 281 269 259 253 250 248 245 243 241 241 242 243 243 242 240 239 240 239 238 237 237 237 237 237 237 238 239 239 239 238 238
264 263 263 263 263 264 265 265 267 269 271 272 274 275 276 278 280 283 284 284 285 287 289 290 288 286 287 289 288 285 284 284 284 277 266 258 252 249 247 245 242 240 240 242 243 243 241 238 238 238 237 237 236 237 237 237 237 237 238 239 239 239 239
265 263 263 263 263 263 263 264 264 265 267 269 271 272 274 276 278 279 280 281 282 284 286 287 285 283 284 287 285 283 280 277 277 276 271 263 254 249 247 245 243 240 238 238 240 241 240 237 234 234 234 234 235 236 236 237 238 237 237 237 238 239 240
265 264 263 263 262 262 262 262 262 263 264 266 267 269 270 273 275 276 277 278 279 281 282 282 282 279 280 282 283 281 277 273 269 268 267 265 259 252 247 244 241 239 237 236 237 238 238 237 234 232 232 232 234 236 237 237 238 238 237 236 237 238 238
266 264 264 263 263 262 261 261 260 261 261 262 263 265 267 270 272 272 273 274 276 278 278 277 277 275 274 278 280 280 277 272 267 262 261 262 260 257 252 246 241 237 235 236 236 237 238 238 236 235 235 235 235 237 238 239 240 239 238 238 237 237 238
268 265 264 263 263 262 261 261 260 259 259 259 260 262 264 267 269 269 269 270 272 274 274 274 272 269 269 271 275 278 278 274 269 263 259 257 255 253 252 249 246 242 239 237 238 238 238 239 240 239 240 240 240 241 241 242 242 242 242 241 240 239 239
271 268 265 263 262 262 262 261 260 258 257 257 258 260 262 264 265 266 266 267 268 270 272 273 271 267 262 261 264 269 272 273 272 266 259 255 253 251 248 247 246 246 245 243 242 242 241 241 240 241 242 243 243 243 244 244 243 243 243 244 244 242 240
274 270 266 264 262 261 261 261 259 258 257 256 257 259 260 261 261 262 264 265 266 269 271 273 273 269 263 258 256 258 261 265 268 267 261 256 254 252 250 250 249 248 248 248 248 248 247 247 246 245 245 245 246 246 245 244 244 243 242 243 244 242 241
275 272 269 265 263 261 261 260 259 258 257 256 256 256 259 259 258 258 260 262 266 269 271 273 273 270 266 261 256 255 256 258 261 263 263 259 257 256 256 256 254 253 253 252 252 251 251 252 252 251 249 248 248 248 246 246 246 245 244 244 244 242 240
275 273 270 266 263 261 260 259 259 258 256 255 255 255 256 257 256 256 256 258 262 265 266 266 267 268 268 264 259 257 257 256 256 258 260 260 260 262 262 260 258 258 257 255 254 253 253 254 253 252 251 250 249 248 247 247 248 249 249 249 247 245 242
276 273 270 267 264 261 260 259 258 257 256 255 254 253 253 254 254 254 255 257 259 259 259 259 258 260 264 264 264 264 263 261 259 258 258 259 261 262 261 260 260 260 257 254 253 252 252 253 254 253 253 251 250 249 248 247 246 248 252 253 252 250 246
275 273 270 267 264 261 259 257 256 256 255 255 253 251 250 252 252 253 255 257 257 257 259 258 254 254 257 260 264 269 271 270 265 262 259 259 260 259 259 258 260 260 258 258 257 254 250 250 252 254 255 255 253 252 250 247 245 247 250 253 255 254 251
275 273 270 267 264 261 258 255 255 255 254 254 252 249 248 249 250 252 255 257 256 257 261 261 255 254 256 255 255 258 262 266 266 264 262 260 259 258 258 259 262 262 261 262 263 262 259 257 254 253 254 255 255 255 252 249 246 247 249 251 253 252 250
275 273 271 268 263 260 257 254 254 255 254 253 250 247 246 246 247 251 255 256 256 257 261 260 257 258 257 250 245 246 251 259 264 266 264 261 258 256 255 254 258 261 262 264 266 269 271 269 264 258 255 253 253 254 253 250 248 247 248 250 250 249 246
276 273 271 267 263 260 256 253 253 254 253 252 249 245 244 244 245 249 253 255 254 256 258 257 256 259 258 252 244 243 248 256 263 267 268 265 260 256 251 246 248 250 251 257 263 270 273 273 271 267 262 257 254 252 252 251 248 245 246 249 249 246 244
276 273 271 268 264 260 257 252 252 253 252 250 246 242 241 242 244 248 251 253 253 253 254 253 253 257 261 258 251 246 249 256 260 264 268 269 266 259 246 236 241 243 244 251 259 265 268 271 272 271 267 263 259 254 252 252 250 245 244 247 247 245 244
277 274 271 268 265 261 257 252 251 251 251 248 243 240 240 242 245 248 250 252 251 251 253 252 250 253 259 264 262 257 255 258 260 259 257 257 262 263 253 241 239 240 242 249 256 261 264 268 270 270 269 266 262 258 254 252 251 247 244 245 246 245 244
278 275 272 270 266 262 257 253 251 251 250 246 242 239 240 243 245 247 249 250 249 250 254 252 247 246 252 258 262 260 257 257 259 259 255 250 252 259 261 255 248 242 241 247 253 257 261 266 269 271 272 269 264 259 254 251 250 248 245 244 245 245 244
279 276 273 270 267 262 258 255 253 252 250 244 239 238 241 245 247 246 247 248 247 249 253 253 247 243 245 250 255 258 256 253 252 254 257 255 252 251 251 252 252 247 243 245 249 252 256 262 268 273 276 273 266 259 253 248 246 246 244 242 242 242 241
278 277 273 270 267 263 260 257 256 254 250 243 238 238 241 245 247 247 247 248 247 248 253 254 248 245 245 248 251 255 255 252 250 250 253 257 256 252 248 246 247 248 246 247 249 252 254 258 264 272 275 272 266 259 250 244 241 241 240 239 238 235 232
278 277 273 269 266 264 261 259 258 256 252 244 238 237 238 241 243 245 247 248 249 251 255 256 252 249 250 252 254 257 258 256 253 251 251 252 254 254 252 248 246 246 248 250 253 256 257 258 263 270 273 270 266 260 252 244 240 239 237 235 232 227 223
278 277 272 268 265 263 261 259 257 255 253 246 239 236 236 238 241 244 246 249 252 255 257 258 256 255 257 260 261 262 262 260 257 253 250 250 250 252 252 250 247 246 247 251 255 258 259 260 263 267 269 269 269 266 259 249 242 239 236 233 228 223 221
276 275 272 267 264 262 259 256 253 251 249 245 241 237 236 238 240 243 245 248 252 256 258 259 260 259 261 264 266 266 264 263 261 258 254 250 249 250 251 250 249 248 249 253 257 258 259 260 263 266 266 266 268 270 264 252 243 238 235 231 226 223 221
276 275 272 268 265 260 254 250 249 247 245 244 241 239 238 239 241 244 246 250 253 256 258 260 261 262 263 265 267 267 266 265 264 262 258 254 250 250 250 250 250 249 250 252 254 256 256 257 260 266 268 264 263 265 261 250 242 237 232 227 224 222 221
275 274 271 267 264 258 251 246 244 243 242 242 242 240 240 241 243 245 248 251 254 256 258 261 263 264 265 266 267 267 267 267 265 264 261 258 253 249 248 249 250 250 251 251 251 252 254 255 258 264 267 263 259 259 255 247 240 234 228 224 223 223 223
272 271 270 268 262 254 243 238 238 237 239 242 244 244 243 243 245 248 249 251 254 257 260 264 265 266 267 268 268 268 267 267 267 265 263 260 256 251 247 246 248 249 251 252 251 251 252 253 255 258 261 260 257 251 244 239 235 229 224 223 224 225 227
270 272 271 263 253 245 239 236 238 239 240 243 246 248 249 249 249 249 250 253 257 261 263 265 266 267 268 269 269 269 268 268 268 266 264 261 258 253 247 244 245 247 249 250 250 250 251 251 252 253 254 255 254 247 234 225 221 218 216 218 223 228 231
270 272 267 256 248 245 244 243 242 242 242 243 246 249 252 253 253 253 255 257 260 261 262 264 265 267 267 268 268 268 268 267 266 265 264 262 259 254 248 244 244 246 248 248 248 248 248 249 250 249 248 249 249 246 235 224 218 215 215 217 221 227 232
269 266 261 255 250 248 248 247 245 243 242 243 244 247 250 254 257 258 259 259 259 260 260 261 262 262 263 264 264 264 264 263 263 263 263 262 260 255 251 248 247 247 247 247 246 245 245 246 248 249 248 245 243 242 238 231 224 222 222 223 225 228 231
264 261 258 255 251 248 246 245 243 243 243 244 245 246 249 253 257 259 259 258 258 258 257 257 257 258 258 259 259 260 260 259 259 259 259 260 260 256 252 249 248 248 247 245 244 244 244 245 247 248 249 246 242 238 237 235 231 228 228 230 231 231 232
260 257 256 254 251 249 247 243 242 242 241 242 244 246 249 252 256 257 257 255 255 254 254 253 253 254 255 256 256 257 257 255 254 254 255 256 257 255 252 250 247 246 245 244 242 243 244 245 246 248 248 248 245 240 237 236 234 233 232 233 233 234 234
258 255 253 252 251 250 248 245 243 242 240 240 242 244 248 251 253 254 253 252 252 254 254 254 253 253 254 255 255 255 254 252 251 251 252 253 253 252 251 249 247 245 244 243 242 242 243 244 245 246 247 248 248 245 242 239 236 234 234 234 234 235 235
Height
2896 2896 2895 2895 2894 2894 2893 2893 2892 2891 2890 2890 2889 2888 2887 2886 2884 2884 2883 2881 2880 2878 2876 2875 2873 2872 2870 2867 2865 2864 2864 2863 2863 2863 2865 2866 2869 2871 2874 2877 2878 2882 2888 2892 2897 2903 2908 2913 2917 2920 2923 2926 2929 2933 2936 2939 2943 2946 2949 2953 2957 2961 2965
2891 2891 2890 2890 2890 2889 2889 2888 2888 2887 2886 2885 2885 2884 2883 2882 2881 2880 2879 2878 2876 2874 2872 2871 2870 2869 2866 2864 2862 2861 2860 2859 2859 2859 2859 2860 2862 2865 2868 2870 2873 2876 2880 2884 2891 2896 2899 2905 2910 2914 2917 2920 2922 2926 2929 2932 2936 2939 2942 2945 2949 2954 2957
2885 2885 2885 2885 2885 2884 2884 2884 2883 2882 2882 2881 2880 2880 2879 2878 2877 2876 2875 2874 2872 2871 2869 2868 2867 2866 2863 2861 2860 2859 2857 2856 2855 2855 2855 2856 2857 2859 2862 2865 2867 2870 2873 2877 2883 2889 2893 2897 2901 2906 2911 2913 2915 2920 2922 2926 2929 2932 2935 2938 2942 2945 2949
2879 2879 2879 2879 2879 2879 2879 2879 2878 2878 2877 2876 2876 2875 2874 2874 2873 2872 2871 2870 2869 2867 2865 2864 2863 2862 2860 2858 2857 2856 2854 2853 2851 2851 2851 2851 2853 2854 2856 2860 2862 2865 2868 2871 2876 2882 2887 2890 2893 2899 2903 2906 2908 2912 2915 2919 2922 2924 2928 2932 2935 2937 2941
2872 2872 2873 2873 2873 2873 2873 2873 2873 2873 2872 2872 2871 2871 2870 2869 2869 2868 2867 2866 2865 2863 2861 2861 2860 2859 2857 2855 2854 2853 2852 2850 2849 2848 2848 2848 2849 2850 2852 2854 2857 2860 2863 2866 2869 2875 2881 2885 2888 2891 2895 2899 2902 2904 2907 2911 2915 2917 2921 2924 2927 2930 2933
2866 2866 2866 2867 2867 2867 2867 2867 2867 2867 2867 2867 2866 2866 2865 2864 2864 2864 2863 2862 2861 2859 2858 2857 2856 2855 2854 2853 2852 2850 2849 2848 2848 2846 2846 2845 2846 2847 2848 2850 2853 2855 2858 2861 2864 2868 2873 2879 2882 2885 2888 2892 2895 2897 2899 2903 2907 2910 2913 2916 2919 2922 2926
2860 2860 2860 2860 2860 2861 2861 2861 2862 2862 2862 2862 2861 2861 2860 2860 2860 2859 2859 2858 2857 2856 2855 2854 2853 2852 2851 2850 2849 2848 2847 2846 2846 2845 2844 2844 2844 2844 2845 2847 2849 2851 2853 2856 2859 2862 2867 2872 2876 2879 2882 2885 2887 2889 2893 2897 2899 2902 2905 2908 2911 2914 2918
2854 2854 2854 2854 2854 2855 2855 2855 2856 2856 2856 2856 2856 2856 2855 2855 2855 2855 2855 2854 2853 2852 2851 2851 2850 2849 2848 2847 2847 2846 2845 2844 2844 2844 2843 2843 2843 2843 2843 2844 2846 2848 2850 2852 2855 2858 2861 2865 2869 2873 2876 2878 2880 2884 2888 2890 2890 2893 2897 2900 2902 2905 2909
2848 2848 2848 2848 2848 2848 2849 2849 2850 2851 2851 2851 2850 2850 2850 2850 2851 2851 2850 2850 2849 2849 2848 2847 2847 2846 2846 2845 2844 2844 2843 2842 2842 2842 2842 2842 2842 2842 2843 2843 2844 2846 2848 2850 2852 2855 2858 2860 2864 2868 2871 2873 2876 2879 2882 2883 2883 2886 2890 2893 2894 2896 2901
2842 2842 2842 2842 2842 2842 2843 2844 2845 2845 2845 2845 2845 2845 2845 2846 2846 2846 2846 2846 2845 2845 2844 2844 2843 2843 2843 2842 2842 2842 2841 2840 2840 2840 2840 2840 2840 2841 2842 2842 2844 2845 2846 2848 2849 2852 2854 2857 2860 2863 2865 2868 2871 2873 2875 2876 2878 2881 2884 2885 2886 2890 2895
2836 2836 2836 2836 2836 2837 2837 2838 2839 2839 2839 2839 2839 2840 2840 2841 2842 2842 2841 2842 2841 2841 2840 2840 2840 2840 2839 2839 2839 2839 2838 2838 2838 2838 2838 2838 2838 2838 2839 2840 2842 2843 2844 2846 2847 2849 2851 2854 2856 2859 2861 2863 2865 2867 2869 2870 2872 2875 2877 2877 2879 2884 2890
2831 2831 2830 2830 2831 2831 2832 2833 2833 2833 2833 2833 2834 2834 2835 2836 2837 2837 2837 2837 2837 2837 2837 2836 2836 2836 2836 2836 2836 2836 2836 2836 2836 2836 2836 2836 2836 2836 2837 2838 2840 2841 2843 2844 2845 2847 2849 2850 2853 2855 2857 2859 2860 2862 2864 2865 2866 2868 2870 2870 2872 2877 2883
2825 2825 2825 2825 2825 2826 2827 2827 2828 2827 2827 2828 2829 2829 2830 2831 2833 2833 2833 2833 2833 2833 2833 2832 2832 2832 2833 2833 2834 2833 2833 2834 2834 2834 2834 2834 2834 2834 2835 2836 2837 2839 2840 2841 2842 2844 2846 2848 2849 2851 2853 2855 2856 2857 2859 2860 2862 2863 2864 2864 2866 2870 2875
2820 2820 2819 2819 2820 2820 2821 2822 2822 2822 2822 2823 2824 2824 2824 2826 2828 2828 2829 2829 2829 2829 2829 2829 2829 2829 2829 2830 2830 2831 2831 2832 2832 2832 2831 2832 2832 2833 2834 2834 2835 2836 2837 2838 2839 2840 2842 2844 2845 2846 2848 2850 2852 2853 2855 2857 2858 2859 2859 2860 2862 2865 2868
2815 2815 2814 2814 2814 2815 2816 2817 2817 2816 2817 2818 2819 2819 2819 2821 2823 2823 2824 2825 2826 2826 2826 2826 2826 2826 2826 2827 2827 2828 2828 2829 2829 2829 2829 2830 2831 2832 2832 2832 2833 2834 2834 2834 2835 2836 2839 2840 2841 2842 2844 2845 2847 2848 2850 2852 2854 2854 2855 2856 2858 2860 2862
2810 2810 2810 2809 2809 2810 2812 2812 2811 2811 2812 2813 2814 2814 2815 2816 2818 2818 2819 2821 2822 2823 2823 2823 2823 2823 2824 2824 2824 2825 2825 2825 2825 2826 2826 2827 2828 2829 2829 2830 2832 2832 2831 2832 2832 2833 2835 2836 2838 2839 2839 2841 2842 2843 2845 2848 2849 2850 2851 2852 2854 2856 2857
2806 2805 2805 2805 2805 2805 2807 2807 2806 2806 2808 2808 2809 2809 2810 2812 2813 2813 2814 2817 2818 2818 2819 2820 2820 2820 2820 2821 2822 2822 2822 2822 2822 2822 2823 2824 2826 2826 2827 2828 2829 2829 2829 2829 2829 2829 2831 2833 2834 2836 2836 2837 2838 2839 2841 2842 2843 2845 2847 2849 2850 2852 2853
2802 2801 2801 2800 2800 2800 2802 2802 2801 2802 2803 2804 2804 2805 2806 2808 2808 2809 2810 2812 2814 2815 2815 2816 2817 2817 2817 2818 2819 2819 2819 2819 2819 2819 2820 2821 2822 2822 2824 2826 2827 2826 2826 2826 2826 2827 2828 2829 2830 2831 2832 2833 2834 2835 2836 2837 2838 2841 2843 2844 2845 2848 2850
2797 2797 2796 2796 2796 2796 2797 2798 2797 2797 2799 2800 2800 2801 2802 2803 2804 2804 2806 2809 2810 2811 2812 2813 2814 2814 2814 2815 2816 2817 2817 2817 2816 2816 2816 2817 2818 2819 2821 2824 2824 2824 2824 2824 2824 2825 2825 2826 2826 2827 2828 2829 2830 2831 2832 2832 2834 2837 2838 2838 2841 2844 2845
2793 2793 2792 2791 2791 2792 2792 2793 2793 2793 2794 2795 2796 2797 2798 2799 2799 2800 2803 2805 2806 2807 2808 2809 2811 2811 2811 2812 2813 2814 2814 2814 2814 2814 2813 2814 2814 2815 2818 2820 2820 2820 2821 2822 2822 2823 2823 2823 2824 2824 2824 2825 2826 2827 2828 2828 2829 2832 2833 2834 2836 2839 2841
2789 2789 2788 2787 2787 2787 2788 2789 2789 2789 2790 2791 2792 2793 2793 2794 2795 2797 2799 2801 2802 2803 2804 2806 2807 2808 2808 2808 2809 2810 2811 2811 2811 2811 2811 2811 2811 2812 2814 2816 2816 2817 2818 2818 2819 2820 2820 2820 2821 2821 2821 2822 2822 2823 2824 2824 2825 2827 2829 2830 2832 2835 2837
2785 2784 2784 2783 2783 2783 2784 2784 2785 2785 2786 2787 2788 2789 2789 2790 2791 2794 2796 2797 2798 2800 2800 2802 2804 2805 2805 2805 2806 2806 2807 2808 2808 2808 2808 2808 2808 2809 2811 2812 2813 2814 2815 2815 2815 2816 2817 2817 2818 2818 2818 2818 2819 2819 2820 2820 2821 2822 2824 2826 2828 2831 2833
2780 2780 2780 2779 2779 2779 2779 2780 2781 2782 2783 2783 2784 2785 2785 2786 2788 2791 2792 2793 2795 2796 2797 2798 2800 2801 2802 2802 2802 2803 2803 2804 2804 2804 2804 2805 2805 2806 2807 2808 2809 2810 2810 2811 2812 2812 2813 2814 2814 2815 2815 2815 2815 2815 2815 2815 2816 2817 2819 2821 2824 2827 2830
2776 2776 2776 2776 2775 2775 2775 2776 2777 2778 2779 2780 2780 2781 2782 2783 2785 2787 2788 2789 2791 2792 2794 2795 2796 2797 2798 2798 2798 2798 2799 2800 2800 2801 2801 2802 2802 2803 2804 2805 2805 2805 2806 2807 2808 2808 2810 2811 2811 2812 2812 2812 2811 2810 2810 2809 2810 2812 2815 2817 2820 2823 2826
2772 2772 2772 2772 2772 2771 2772 2772 2773 2774 2775 2776 2777 2777 2778 2780 2781 2783 2784 2785 2787 2789 2790 2791 2792 2793 2793 2794 2794 2794 2795 2796 2797 2797 2797 2798 2798 2799 2800 2801 2802 2802 2802 2803 2804 2805 2806 2807 2808 2808 2808 2808 2807 2806 2805 2805 2806 2808 2811 2813 2815 2819 2822
2768 2768 2769 2768 2768 2768 2768 2769 2769 2770 2771 2772 2772 2773 2775 2776 2778 2779 2780 2781 2783 2785 2786 2787 2788 2789 2790 2790 2790 2791 2791 2792 2793 2793 2793 2794 2795 2795 2796 2797 2798 2798 2798 2799 2800 2801 2803 2804 2805 2805 2805 2804 2803 2802 2802 2803 2804 2805 2807 2809 2811 2814 2817
2764 2765 2765 2765 2765 2765 2765 2765 2766 2767 2767 2768 2768 2770 2771 2773 2774 2775 2777 2778 2779 2781 2782 2783 2784 2785 2786 2787 2787 2787 2788 2788 2789 2789 2789 2790 2791 2791 2792 2793 2793 2794 2795 2795 2796 2798 2799 2801 2801 2801 2801 2801 2800 2800 2800 2800 2801 2802 2804 2806 2808 2811 2813
2761 2761 2761 2761 2762 2762 2762 2762 2763 2763 2764 2764 2765 2766 2767 2769 2770 2772 2773 2774 2775 2776 2777 2779 2780 2781 2782 2783 2783 2783 2784 2784 2785 2785 2785 2786 2787 2787 2788 2789 2789 2790 2790 2791 2792 2794 2796 2797 2798 2798 2798 2798 2798 2797 2797 2798 2798 2800 2802 2804 2805 2807 2810
2757 2757 2757 2758 2758 2759 2759 2759 2759 2760 2760 2760 2761 2762 2764 2766 2767 2768 2770 2771 2771 2772 2773 2775 2776 2776 2777 2778 2779 2779 2779 2780 2780 2781 2781 2782 2783 2783 2784 2785 2785 2785 2786 2787 2788 2790 2792 2793 2794 2795 2795 2795 2795 2795 2795 2795 2796 2798 2800 2801 2802 2804 2808
2754 2753 2754 2755 2755 2756 2756 2756 2755 2756 2756 2757 2758 2759 2761 2762 2763 2764 2766 2766 2767 2768 2769 2770 2771 2772 2773 2773 2774 2775 2775 2775 2776 2777 2777 2778 2778 2779 2780 2781 2781 2782 2782 2783 2784 2786 2787 2789 2791 2792 2792 2792 2792 2793 2793 2794 2795 2796 2798 2799 2801 2803 2806
2750 2750 2751 2751 2752 2752 2752 2752 2752 2753 2754 2755 2755 2756 2757 2758 2759 2760 2761 2762 2763 2764 2765 2766 2766 2767 2768 2769 2769 2770 2771 2771 2771 2772 2773 2773 2774 2775 2776 2777 2777 2778 2778 2779 2780 2782 2783 2785 2787 2788 2789 2789 2790 2791 2791 2792 2793 2795 2796 2798 2799 2801 2804
2748 2748 2748 2748 2748 2749 2749 2749 2750 2750 2751 2752 2752 2753 2754 2754 2754 2756 2758 2759 2760 2760 2761 2762 2762 2763 2764 2764 2765 2765 2766 2766 2767 2767 2768 2769 2770 2771 2772 2772 2773 2774 2775 2776 2777 2778 2779 2781 2783 2784 2786 2787 2787 2788 2789 2790 2791 2793 2794 2796 2797 2799 2801
2745 2745 2745 2745 2745 2746 2746 2747 2747 2748 2748 2749 2749 2750 2750 2750 2750 2752 2754 2755 2755 2755 2756 2758 2758 2759 2759 2760 2760 2761 2762 2762 2762 2763 2764 2765 2766 2767 2768 2769 2769 2770 2771 2772 2773 2774 2776 2777 2779 2780 2782 2783 2784 2785 2786 2788 2789 2790 2792 2793 2794 2796 2798
2742 2743 2742 2742 2743 2743 2744 2744 2744 2745 2745 2746 2746 2747 2747 2746 2747 2748 2750 2750 2751 2751 2752 2753 2754 2754 2755 2756 2756 2757 2757 2758 2759 2759 2760 2761 2762 2763 2764 2765 2766 2767 2768 2769 2770 2771 2772 2773 2775 2776 2778 2779 2781 2782 2783 2784 2786 2787 2788 2790 2791 2793 2794
2740 2740 2740 2740 2740 2740 2741 2742 2742 2742 2743 2743 2743 2743 2743 2743 2744 2745 2746 2746 2747 2747 2748 2749 2750 2750 2751 2752 2752 2753 2754 2754 2755 2756 2757 2758 2758 2759 2760 2761 2762 2763 2764 2765 2766 2767 2769 2770 2771 2772 2774 2775 2777 2778 2779 2781 2782 2783 2784 2786 2787 2789 2791
2737 2737 2737 2737 2737 2738 2738 2739 2739 2740 2740 2740 2740 2740 2740 2741 2741 2742 2743 2743 2743 2744 2744 2745 2746 2747 2747 2748 2749 2749 2750 2751 2752 2753 2754 2755 2755 2756 2757 2758 2759 2760 2761 2762 2763 2764 2765 2766 2767 2769 2770 2771 2772 2774 2775 2776 2778 2779 2780 2782 2783 2785 2786